Year,Month,Day,Hour,Minute,Value (Times are PST for temperature in C)
2019,02,04,00,00,-5.80
2019,02,04,00,01,-5.80
2019,02,04,00,02,-5.80
2019,02,04,00,03,-5.80
2019,02,04,00,04,-5.80
2019,02,04,00,05,-5.80
2019,02,04,00,06,-5.80
2019,02,04,00,07,-5.80
2019,02,04,00,08,-5.80
2019,02,04,00,09,-5.80
2019,02,04,00,10,-5.80
2019,02,04,00,11,-5.90
2019,02,04,00,12,-5.90
2019,02,04,00,13,-5.90
2019,02,04,00,14,-5.90
2019,02,04,00,15,-5.90
2019,02,04,00,16,-5.90
2019,02,04,00,17,-6.00
2019,02,04,00,18,-6.00
2019,02,04,00,19,-6.00
2019,02,04,00,20,-6.00
2019,02,04,00,21,-6.00
2019,02,04,00,22,-6.00
2019,02,04,00,23,-6.00
2019,02,04,00,24,-6.00
2019,02,04,00,25,-5.90
2019,02,04,00,26,-5.90
2019,02,04,00,27,-6.00
2019,02,04,00,28,-6.00
2019,02,04,00,29,-6.00
2019,02,04,00,30,-6.00
2019,02,04,00,31,-6.10
2019,02,04,00,32,-6.10
2019,02,04,00,33,-6.10
2019,02,04,00,34,-6.20
2019,02,04,00,35,-6.20
2019,02,04,00,36,-6.20
2019,02,04,00,37,-6.20
2019,02,04,00,38,-6.20
2019,02,04,00,39,-6.20
2019,02,04,00,40,-6.30
2019,02,04,00,41,-6.30
2019,02,04,00,42,-6.30
2019,02,04,00,43,-6.30
2019,02,04,00,44,-6.30
2019,02,04,00,45,-6.30
2019,02,04,00,46,-6.40
2019,02,04,00,47,-6.40
2019,02,04,00,48,-6.40
2019,02,04,00,49,-6.40
2019,02,04,00,50,-6.40
2019,02,04,00,51,-6.50
2019,02,04,00,52,-6.50
2019,02,04,00,53,-6.50
2019,02,04,00,54,-6.50
2019,02,04,00,55,-6.60
2019,02,04,00,56,-6.60
2019,02,04,00,57,-6.60
2019,02,04,00,58,-6.60
2019,02,04,00,59,-6.60
2019,02,04,01,00,-6.60
2019,02,04,01,01,-6.60
2019,02,04,01,02,-6.70
2019,02,04,01,03,-6.70
2019,02,04,01,04,-6.70
2019,02,04,01,05,-6.70
2019,02,04,01,06,-6.70
2019,02,04,01,07,-6.70
2019,02,04,01,08,-6.70
2019,02,04,01,09,-6.70
2019,02,04,01,10,-6.70
2019,02,04,01,11,-6.70
2019,02,04,01,12,-6.70
2019,02,04,01,13,-6.70
2019,02,04,01,14,-6.70
2019,02,04,01,15,-6.70
2019,02,04,01,16,-6.70
2019,02,04,01,17,-6.70
2019,02,04,01,18,-6.70
2019,02,04,01,19,-6.70
2019,02,04,01,20,-6.70
2019,02,04,01,21,-6.70
2019,02,04,01,22,-6.80
2019,02,04,01,23,-6.80
2019,02,04,01,24,-6.80
2019,02,04,01,25,-6.80
2019,02,04,01,26,-6.80
2019,02,04,01,27,-6.80
2019,02,04,01,28,-6.80
2019,02,04,01,29,-6.80
2019,02,04,01,30,-6.80
2019,02,04,01,31,-6.80
2019,02,04,01,32,-6.80
2019,02,04,01,33,-6.80
2019,02,04,01,34,-6.80
2019,02,04,01,35,-6.90
2019,02,04,01,36,-6.90
2019,02,04,01,37,-6.90
2019,02,04,01,38,-6.90
2019,02,04,01,39,-6.90
2019,02,04,01,40,-7.00
2019,02,04,01,41,-7.00
2019,02,04,01,42,-7.00
2019,02,04,01,43,-7.00
2019,02,04,01,44,-7.00
2019,02,04,01,45,-7.00
2019,02,04,01,46,-7.10
2019,02,04,01,47,-7.10
2019,02,04,01,48,-7.00
2019,02,04,01,49,-7.00
2019,02,04,01,50,-7.00
2019,02,04,01,51,-7.10
2019,02,04,01,52,-7.10
2019,02,04,01,53,-7.10
2019,02,04,01,54,-7.10
2019,02,04,01,55,-7.10
2019,02,04,01,56,-7.10
2019,02,04,01,57,-7.10
2019,02,04,01,58,-7.10
2019,02,04,01,59,-7.20
2019,02,04,02,00,-7.20
2019,02,04,02,01,-7.20
2019,02,04,02,02,-7.20
2019,02,04,02,03,-7.20
2019,02,04,02,04,-7.20
2019,02,04,02,05,-7.30
2019,02,04,02,06,-7.30
2019,02,04,02,07,-7.30
2019,02,04,02,08,-7.30
2019,02,04,02,09,-7.30
2019,02,04,02,10,-7.30
2019,02,04,02,11,-7.30
2019,02,04,02,12,-7.30
2019,02,04,02,13,-7.30
2019,02,04,02,14,-7.30
2019,02,04,02,15,-7.30
2019,02,04,02,16,-7.30
2019,02,04,02,17,-7.30
2019,02,04,02,18,-7.30
2019,02,04,02,19,-7.40
2019,02,04,02,20,-7.40
2019,02,04,02,21,-7.40
2019,02,04,02,22,-7.40
2019,02,04,02,23,-7.40
2019,02,04,02,24,-7.50
2019,02,04,02,25,-7.50
2019,02,04,02,26,-7.50
2019,02,04,02,27,-7.50
2019,02,04,02,28,-7.50
2019,02,04,02,29,-7.50
2019,02,04,02,30,-7.50
2019,02,04,02,31,-7.50
2019,02,04,02,32,-7.50
2019,02,04,02,33,-7.50
2019,02,04,02,34,-7.50
2019,02,04,02,35,-7.50
2019,02,04,02,36,-7.50
2019,02,04,02,37,-7.50
2019,02,04,02,38,-7.50
2019,02,04,02,39,-7.50
2019,02,04,02,40,-7.50
2019,02,04,02,41,-7.50
2019,02,04,02,42,-7.50
2019,02,04,02,43,-7.40
2019,02,04,02,44,-7.40
2019,02,04,02,45,-7.40
2019,02,04,02,46,-7.40
2019,02,04,02,47,-7.40
2019,02,04,02,48,-7.40
2019,02,04,02,49,-7.40
2019,02,04,02,50,-7.40
2019,02,04,02,51,-7.40
2019,02,04,02,52,-7.40
2019,02,04,02,53,-7.40
2019,02,04,02,54,-7.40
2019,02,04,02,55,-7.40
2019,02,04,02,56,-7.40
2019,02,04,02,57,-7.40
2019,02,04,02,58,-7.40
2019,02,04,02,59,-7.40
2019,02,04,03,00,-7.40
2019,02,04,03,01,-7.40
2019,02,04,03,02,-7.40
2019,02,04,03,03,-7.40
2019,02,04,03,04,-7.40
2019,02,04,03,05,-7.40
2019,02,04,03,06,-7.40
2019,02,04,03,07,-7.40
2019,02,04,03,08,-7.40
2019,02,04,03,09,-7.40
2019,02,04,03,10,-7.40
2019,02,04,03,11,-7.40
2019,02,04,03,12,-7.40
2019,02,04,03,13,-7.40
2019,02,04,03,14,-7.50
2019,02,04,03,15,-7.50
2019,02,04,03,16,-7.50
2019,02,04,03,17,-7.60
2019,02,04,03,18,-7.60
2019,02,04,03,19,-7.60
2019,02,04,03,20,-7.70
2019,02,04,03,21,-7.70
2019,02,04,03,22,-7.70
2019,02,04,03,23,-7.70
2019,02,04,03,24,-7.80
2019,02,04,03,25,-7.80
2019,02,04,03,26,-7.80
2019,02,04,03,27,-7.80
2019,02,04,03,28,-7.80
2019,02,04,03,29,-7.80
2019,02,04,03,30,-7.80
2019,02,04,03,31,-7.80
2019,02,04,03,32,-7.90
2019,02,04,03,33,-7.90
2019,02,04,03,34,-7.90
2019,02,04,03,35,-7.90
2019,02,04,03,36,-8.00
2019,02,04,03,37,-8.00
2019,02,04,03,38,-8.00
2019,02,04,03,39,-8.00
2019,02,04,03,40,-8.00
2019,02,04,03,41,-8.00
2019,02,04,03,42,-8.00
2019,02,04,03,43,-8.10
2019,02,04,03,44,-8.10
2019,02,04,03,45,-8.10
2019,02,04,03,46,-8.10
2019,02,04,03,47,-8.10
2019,02,04,03,48,-8.10
2019,02,04,03,49,-8.20
2019,02,04,03,50,-8.20
2019,02,04,03,51,-8.30
2019,02,04,03,52,-8.30
2019,02,04,03,53,-8.30
2019,02,04,03,54,-8.30
2019,02,04,03,55,-8.40
2019,02,04,03,56,-8.40
2019,02,04,03,57,-8.40
2019,02,04,03,58,-8.40
2019,02,04,03,59,-8.40
2019,02,04,04,00,-8.40
2019,02,04,04,01,-8.30
2019,02,04,04,02,-8.30
2019,02,04,04,03,-8.30
2019,02,04,04,04,-8.30
2019,02,04,04,05,-8.20
2019,02,04,04,06,-8.10
2019,02,04,04,07,-8.10
2019,02,04,04,08,-8.10
2019,02,04,04,09,-8.10
2019,02,04,04,10,-8.10
2019,02,04,04,11,-8.10
2019,02,04,04,12,-8.10
2019,02,04,04,13,-8.10
2019,02,04,04,14,-8.20
2019,02,04,04,15,-8.20
2019,02,04,04,16,-8.30
2019,02,04,04,17,-8.30
2019,02,04,04,18,-8.40
2019,02,04,04,19,-8.40
2019,02,04,04,20,-8.50
2019,02,04,04,21,-8.50
2019,02,04,04,22,-8.60
2019,02,04,04,23,-8.70
2019,02,04,04,24,-8.70
2019,02,04,04,25,-8.60
2019,02,04,04,26,-8.50
2019,02,04,04,27,-8.50
2019,02,04,04,28,-8.40
2019,02,04,04,29,-8.30
2019,02,04,04,30,-8.30
2019,02,04,04,31,-8.20
2019,02,04,04,32,-8.10
2019,02,04,04,33,-8.00
2019,02,04,04,34,-7.90
2019,02,04,04,35,-7.90
2019,02,04,04,36,-7.90
2019,02,04,04,37,-7.90
2019,02,04,04,38,-7.90
2019,02,04,04,39,-7.90
2019,02,04,04,40,-7.90
2019,02,04,04,41,-7.90
2019,02,04,04,42,-7.80
2019,02,04,04,43,-7.80
2019,02,04,04,44,-7.90
2019,02,04,04,45,-7.90
2019,02,04,04,46,-7.90
2019,02,04,04,47,-8.00
2019,02,04,04,48,-8.00
2019,02,04,04,49,-8.10
2019,02,04,04,50,-8.10
2019,02,04,04,51,-8.20
2019,02,04,04,52,-8.20
2019,02,04,04,53,-8.20
2019,02,04,04,54,-8.20
2019,02,04,04,55,-8.30
2019,02,04,04,56,-8.30
2019,02,04,04,57,-8.30
2019,02,04,04,58,-8.30
2019,02,04,04,59,-8.30
2019,02,04,05,00,-8.30
2019,02,04,05,01,-8.30
2019,02,04,05,02,-8.30
2019,02,04,05,03,-8.40
2019,02,04,05,04,-8.50
2019,02,04,05,05,-8.50
2019,02,04,05,06,-8.60
2019,02,04,05,07,-8.60
2019,02,04,05,08,-8.70
2019,02,04,05,09,-8.70
2019,02,04,05,10,-8.80
2019,02,04,05,11,-8.80
2019,02,04,05,12,-8.80
2019,02,04,05,13,-8.80
2019,02,04,05,14,-8.80
2019,02,04,05,15,-8.80
2019,02,04,05,16,-8.80
2019,02,04,05,17,-8.80
2019,02,04,05,18,-8.90
2019,02,04,05,19,-8.90
2019,02,04,05,20,-8.90
2019,02,04,05,21,-9.00
2019,02,04,05,22,-9.00
2019,02,04,05,23,-9.00
2019,02,04,05,24,-9.10
2019,02,04,05,25,-9.10
2019,02,04,05,26,-9.10
2019,02,04,05,27,-9.10
2019,02,04,05,28,-9.10
2019,02,04,05,29,-9.20
2019,02,04,05,30,-9.20
2019,02,04,05,31,-9.20
2019,02,04,05,32,-9.30
2019,02,04,05,33,-9.30
2019,02,04,05,34,-9.40
2019,02,04,05,35,-9.50
2019,02,04,05,36,-9.50
2019,02,04,05,37,-9.50
2019,02,04,05,38,-9.60
2019,02,04,05,39,-9.60
2019,02,04,05,40,-9.60
2019,02,04,05,41,-9.50
2019,02,04,05,42,-9.50
2019,02,04,05,43,-9.40
2019,02,04,05,44,-9.40
2019,02,04,05,45,-9.30
2019,02,04,05,46,-9.30
2019,02,04,05,47,-9.30
2019,02,04,05,48,-9.30
2019,02,04,05,49,-9.30
2019,02,04,05,50,-9.30
2019,02,04,05,51,-9.30
2019,02,04,05,52,-9.30
2019,02,04,05,53,-9.20
2019,02,04,05,54,-9.20
2019,02,04,05,55,-9.20
2019,02,04,05,56,-9.20
2019,02,04,05,57,-9.20
2019,02,04,05,58,-9.20
2019,02,04,05,59,-9.20
2019,02,04,06,00,-9.20
2019,02,04,06,01,-9.20
2019,02,04,06,02,-9.20
2019,02,04,06,03,-9.20
2019,02,04,06,04,-9.20
2019,02,04,06,05,-9.20
2019,02,04,06,06,-9.20
2019,02,04,06,07,-9.20
2019,02,04,06,08,-9.20
2019,02,04,06,09,-9.20
2019,02,04,06,10,-9.20
2019,02,04,06,11,-9.30
2019,02,04,06,12,-9.30
2019,02,04,06,13,-9.30
2019,02,04,06,14,-9.30
2019,02,04,06,15,-9.30
2019,02,04,06,16,-9.40
2019,02,04,06,17,-9.40
2019,02,04,06,18,-9.40
2019,02,04,06,19,-9.40
2019,02,04,06,20,-9.40
2019,02,04,06,21,-9.40
2019,02,04,06,22,-9.40
2019,02,04,06,23,-9.40
2019,02,04,06,24,-9.40
2019,02,04,06,25,-9.40
2019,02,04,06,26,-9.40
2019,02,04,06,27,-9.50
2019,02,04,06,28,-9.40
2019,02,04,06,29,-9.40
2019,02,04,06,30,-9.40
2019,02,04,06,31,-9.40
2019,02,04,06,32,-9.40
2019,02,04,06,33,-9.40
2019,02,04,06,34,-9.40
2019,02,04,06,35,-9.50
2019,02,04,06,36,-9.50
2019,02,04,06,37,-9.50
2019,02,04,06,38,-9.40
2019,02,04,06,39,-9.30
2019,02,04,06,40,-9.20
2019,02,04,06,41,-9.10
2019,02,04,06,42,-8.90
2019,02,04,06,43,-8.90
2019,02,04,06,44,-8.80
2019,02,04,06,45,-8.80
2019,02,04,06,46,-8.80
2019,02,04,06,47,-8.80
2019,02,04,06,48,-8.80
2019,02,04,06,49,-8.80
2019,02,04,06,50,-8.80
2019,02,04,06,51,-8.70
2019,02,04,06,52,-8.70
2019,02,04,06,53,-8.80
2019,02,04,06,54,-8.80
2019,02,04,06,55,-8.80
2019,02,04,06,56,-8.80
2019,02,04,06,57,-8.80
2019,02,04,06,58,-8.70
2019,02,04,06,59,-8.70
2019,02,04,07,00,-8.60
2019,02,04,07,01,-8.60
2019,02,04,07,02,-8.50
2019,02,04,07,03,-8.40
2019,02,04,07,04,-8.40
2019,02,04,07,05,-8.40
2019,02,04,07,06,-8.40
2019,02,04,07,07,-8.40
2019,02,04,07,08,-8.40
2019,02,04,07,09,-8.40
2019,02,04,07,10,-8.40
2019,02,04,07,11,-8.40
2019,02,04,07,12,-8.40
2019,02,04,07,13,-8.40
2019,02,04,07,14,-8.40
2019,02,04,07,15,-8.40
2019,02,04,07,16,-8.50
2019,02,04,07,17,-8.50
2019,02,04,07,18,-8.60
2019,02,04,07,19,-8.60
2019,02,04,07,20,-8.70
2019,02,04,07,21,-8.70
2019,02,04,07,22,-8.70
2019,02,04,07,23,-8.70
2019,02,04,07,24,-8.80
2019,02,04,07,25,-8.80
2019,02,04,07,26,-8.80
2019,02,04,07,27,-8.80
2019,02,04,07,28,-8.80
2019,02,04,07,29,-8.80
2019,02,04,07,30,-8.80
2019,02,04,07,31,-8.70
2019,02,04,07,32,-8.70
2019,02,04,07,33,-8.70
2019,02,04,07,34,-8.80
2019,02,04,07,35,-8.80
2019,02,04,07,36,-8.80
2019,02,04,07,37,-8.90
2019,02,04,07,38,-8.90
2019,02,04,07,39,-8.90
2019,02,04,07,40,-8.90
2019,02,04,07,41,-9.00
2019,02,04,07,42,-9.00
2019,02,04,07,43,-9.10
2019,02,04,07,44,-9.10
2019,02,04,07,45,-9.10
2019,02,04,07,46,-9.10
2019,02,04,07,47,-9.10
2019,02,04,07,48,-9.10
2019,02,04,07,49,-9.10
2019,02,04,07,50,-9.10
2019,02,04,07,51,-9.10
2019,02,04,07,52,-9.10
2019,02,04,07,53,-9.10
2019,02,04,07,54,-9.10
2019,02,04,07,55,-9.20
2019,02,04,07,56,-9.20
2019,02,04,07,57,-9.30
2019,02,04,07,58,-9.30
2019,02,04,07,59,-9.30
2019,02,04,08,00,-9.30
2019,02,04,08,01,-9.20
2019,02,04,08,02,-9.20
2019,02,04,08,03,-9.20
2019,02,04,08,04,-9.10
2019,02,04,08,05,-9.10
2019,02,04,08,06,-9.00
2019,02,04,08,07,-9.00
2019,02,04,08,08,-8.90
2019,02,04,08,09,-8.90
2019,02,04,08,10,-8.80
2019,02,04,08,11,-8.80
2019,02,04,08,12,-8.80
2019,02,04,08,13,-8.80
2019,02,04,08,14,-8.80
2019,02,04,08,15,-8.80
2019,02,04,08,16,-8.80
2019,02,04,08,17,-8.80
2019,02,04,08,18,-8.80
2019,02,04,08,19,-8.80
2019,02,04,08,20,-8.70
2019,02,04,08,21,-8.70
2019,02,04,08,22,-8.70
2019,02,04,08,23,-8.70
2019,02,04,08,24,-8.60
2019,02,04,08,25,-8.60
2019,02,04,08,26,-8.60
2019,02,04,08,27,-8.60
2019,02,04,08,28,-8.50
2019,02,04,08,29,-8.50
2019,02,04,08,30,-8.50
2019,02,04,08,31,-8.40
2019,02,04,08,32,-8.40
2019,02,04,08,33,-8.40
2019,02,04,08,34,-8.40
2019,02,04,08,35,-8.30
2019,02,04,08,36,-8.30
2019,02,04,08,37,-8.30
2019,02,04,08,38,-8.30
2019,02,04,08,39,-8.30
2019,02,04,08,40,-8.20
2019,02,04,08,41,-8.10
2019,02,04,08,42,-8.00
2019,02,04,08,43,-7.90
2019,02,04,08,44,-7.80
2019,02,04,08,45,-7.80
2019,02,04,08,46,-7.70
2019,02,04,08,47,-7.70
2019,02,04,08,48,-7.60
2019,02,04,08,49,-7.60
2019,02,04,08,50,-7.50
2019,02,04,08,51,-7.50
2019,02,04,08,52,-7.40
2019,02,04,08,53,-7.30
2019,02,04,08,54,-7.20
2019,02,04,08,55,-7.10
2019,02,04,08,56,-7.00
2019,02,04,08,57,-6.90
2019,02,04,08,58,-6.80
2019,02,04,08,59,-6.80
2019,02,04,09,00,-6.70
2019,02,04,09,01,-6.70
2019,02,04,09,02,-6.60
2019,02,04,09,03,-6.50
2019,02,04,09,04,-6.50
2019,02,04,09,05,-6.40
2019,02,04,09,06,-6.40
2019,02,04,09,07,-6.40
2019,02,04,09,08,-6.30
2019,02,04,09,09,-6.30
2019,02,04,09,10,-6.30
2019,02,04,09,11,-6.30
2019,02,04,09,12,-6.20
2019,02,04,09,13,-6.20
2019,02,04,09,14,-6.20
2019,02,04,09,15,-6.10
2019,02,04,09,16,-6.10
2019,02,04,09,17,-6.00
2019,02,04,09,18,-6.00
2019,02,04,09,19,-5.90
2019,02,04,09,20,-5.80
2019,02,04,09,21,-5.80
2019,02,04,09,22,-5.70
2019,02,04,09,23,-5.60
2019,02,04,09,24,-5.60
2019,02,04,09,25,-5.50
2019,02,04,09,26,-5.50
2019,02,04,09,27,-5.40
2019,02,04,09,28,-5.40
2019,02,04,09,29,-5.30
2019,02,04,09,30,-5.30
2019,02,04,09,31,-5.30
2019,02,04,09,32,-5.20
2019,02,04,09,33,-5.20
2019,02,04,09,34,-5.10
2019,02,04,09,35,-5.10
2019,02,04,09,36,-5.00
2019,02,04,09,37,-5.00
2019,02,04,09,38,-4.90
2019,02,04,09,39,-4.90
2019,02,04,09,40,-4.90
2019,02,04,09,41,-4.80
2019,02,04,09,42,-4.80
2019,02,04,09,43,-4.80
2019,02,04,09,44,-4.70
2019,02,04,09,45,-4.70
2019,02,04,09,46,-4.70
2019,02,04,09,47,-4.60
2019,02,04,09,48,-4.60
2019,02,04,09,49,-4.60
2019,02,04,09,50,-4.50
2019,02,04,09,51,-4.50
2019,02,04,09,52,-4.50
2019,02,04,09,53,-4.50
2019,02,04,09,54,-4.40
2019,02,04,09,55,-4.40
2019,02,04,09,56,-4.40
2019,02,04,09,57,-4.40
2019,02,04,09,58,-4.40
2019,02,04,09,59,-4.40
2019,02,04,10,00,-4.30
2019,02,04,10,01,-4.30
2019,02,04,10,02,-4.30
2019,02,04,10,03,-4.30
2019,02,04,10,04,-4.30
2019,02,04,10,05,-4.30
2019,02,04,10,06,-4.20
2019,02,04,10,07,-4.30
2019,02,04,10,08,-4.20
2019,02,04,10,09,-4.20
2019,02,04,10,10,-4.10
2019,02,04,10,11,-4.10
2019,02,04,10,12,-4.00
2019,02,04,10,13,-4.00
2019,02,04,10,14,-4.00
2019,02,04,10,15,-3.90
2019,02,04,10,16,-3.90
2019,02,04,10,17,-3.90
2019,02,04,10,18,-3.90
2019,02,04,10,19,-3.90
2019,02,04,10,20,-3.80
2019,02,04,10,21,-3.80
2019,02,04,10,22,-3.80
2019,02,04,10,23,-3.70
2019,02,04,10,24,-3.70
2019,02,04,10,25,-3.70
2019,02,04,10,26,-3.70
2019,02,04,10,27,-3.70
2019,02,04,10,28,-3.70
2019,02,04,10,29,-3.80
2019,02,04,10,30,-3.70
2019,02,04,10,31,-3.70
2019,02,04,10,32,-3.70
2019,02,04,10,33,-3.70
2019,02,04,10,34,-3.70
2019,02,04,10,35,-3.60
2019,02,04,10,36,-3.60
2019,02,04,10,37,-3.60
2019,02,04,10,38,-3.60
2019,02,04,10,39,-3.60
2019,02,04,10,40,-3.60
2019,02,04,10,41,-3.60
2019,02,04,10,42,-3.60
2019,02,04,10,43,-3.60
2019,02,04,10,44,-3.50
2019,02,04,10,45,-3.50
2019,02,04,10,46,-3.40
2019,02,04,10,47,-3.40
2019,02,04,10,48,-3.30
2019,02,04,10,49,-3.30
2019,02,04,10,50,-3.30
2019,02,04,10,51,-3.30
2019,02,04,10,52,-3.30
2019,02,04,10,53,-3.30
2019,02,04,10,54,-3.20
2019,02,04,10,55,-3.20
2019,02,04,10,56,-3.20
2019,02,04,10,57,-3.10
2019,02,04,10,58,-3.10
2019,02,04,10,59,-3.20
2019,02,04,11,00,-3.30
2019,02,04,11,01,-3.30
2019,02,04,11,02,-3.30
2019,02,04,11,03,-3.30
2019,02,04,11,04,-3.30
2019,02,04,11,05,-3.30
2019,02,04,11,06,-3.30
2019,02,04,11,07,-3.40
2019,02,04,11,08,-3.40
2019,02,04,11,09,-3.40
2019,02,04,11,10,-3.40
2019,02,04,11,11,-3.30
2019,02,04,11,12,-3.30
2019,02,04,11,13,-3.30
2019,02,04,11,14,-3.30
2019,02,04,11,15,-3.30
2019,02,04,11,16,-3.30
2019,02,04,11,17,-3.20
2019,02,04,11,18,-3.20
2019,02,04,11,19,-3.20
2019,02,04,11,20,-3.10
2019,02,04,11,21,-3.10
2019,02,04,11,22,-3.10
2019,02,04,11,23,-3.10
2019,02,04,11,24,-3.10
2019,02,04,11,25,-3.10
2019,02,04,11,26,-3.10
2019,02,04,11,27,-3.00
2019,02,04,11,28,-3.00
2019,02,04,11,29,-3.00
2019,02,04,11,30,-2.90
2019,02,04,11,31,-2.90
2019,02,04,11,32,-2.80
2019,02,04,11,33,-2.80
2019,02,04,11,34,-2.80
2019,02,04,11,35,-2.80
2019,02,04,11,36,-2.70
2019,02,04,11,37,-2.70
2019,02,04,11,38,-2.70
2019,02,04,11,39,-2.60
2019,02,04,11,40,-2.50
2019,02,04,11,41,-2.50
2019,02,04,11,42,-2.40
2019,02,04,11,43,-2.30
2019,02,04,11,44,-2.30
2019,02,04,11,45,-2.20
2019,02,04,11,46,-2.20
2019,02,04,11,47,-2.20
2019,02,04,11,48,-2.20
2019,02,04,11,49,-2.20
2019,02,04,11,50,-2.20
2019,02,04,11,51,-2.20
2019,02,04,11,52,-2.20
2019,02,04,11,53,-2.10
2019,02,04,11,54,-2.10
2019,02,04,11,55,-2.00
2019,02,04,11,56,-2.00
2019,02,04,11,57,-1.90
2019,02,04,11,58,-1.80
2019,02,04,11,59,-1.80
2019,02,04,12,00,-1.70
2019,02,04,12,01,-1.70
2019,02,04,12,02,-1.70
2019,02,04,12,03,-1.70
2019,02,04,12,04,-1.70
2019,02,04,12,05,-1.70
2019,02,04,12,06,-1.80
2019,02,04,12,07,-1.90
2019,02,04,12,08,-2.00
2019,02,04,12,09,-2.00
2019,02,04,12,10,-2.10
2019,02,04,12,11,-2.10
2019,02,04,12,12,-2.00
2019,02,04,12,13,-2.00
2019,02,04,12,14,-1.90
2019,02,04,12,15,-1.90
2019,02,04,12,16,-1.80
2019,02,04,12,17,-1.80
2019,02,04,12,18,-1.70
2019,02,04,12,19,-1.60
2019,02,04,12,20,-1.50
2019,02,04,12,21,-1.50
2019,02,04,12,22,-1.40
2019,02,04,12,23,-1.40
2019,02,04,12,24,-1.50
2019,02,04,12,25,-1.50
2019,02,04,12,26,-1.50
2019,02,04,12,27,-1.50
2019,02,04,12,28,-1.50
2019,02,04,12,29,-1.50
2019,02,04,12,30,-1.50
2019,02,04,12,31,-1.50
2019,02,04,12,32,-1.60
2019,02,04,12,33,-1.60
2019,02,04,12,34,-1.50
2019,02,04,12,35,-1.50
2019,02,04,12,36,-1.50
2019,02,04,12,37,-1.40
2019,02,04,12,38,-1.30
2019,02,04,12,39,-1.20
2019,02,04,12,40,-1.20
2019,02,04,12,41,-1.10
2019,02,04,12,42,-1.10
2019,02,04,12,43,-1.10
2019,02,04,12,44,-1.00
2019,02,04,12,45,-1.10
2019,02,04,12,46,-1.10
2019,02,04,12,47,-1.10
2019,02,04,12,48,-1.10
2019,02,04,12,49,-1.10
2019,02,04,12,50,-1.10
2019,02,04,12,51,-1.10
2019,02,04,12,52,-1.10
2019,02,04,12,53,-1.10
2019,02,04,12,54,-1.10
2019,02,04,12,55,-1.10
2019,02,04,12,56,-1.10
2019,02,04,12,57,-1.10
2019,02,04,12,58,-1.10
2019,02,04,12,59,-1.10
2019,02,04,13,00,-1.10
2019,02,04,13,01,-1.10
2019,02,04,13,02,-1.10
2019,02,04,13,03,-1.10
2019,02,04,13,04,-1.20
2019,02,04,13,05,-1.20
2019,02,04,13,06,-1.20
2019,02,04,13,07,-1.20
2019,02,04,13,08,-1.20
2019,02,04,13,09,-1.10
2019,02,04,13,10,-1.10
2019,02,04,13,11,-1.10
2019,02,04,13,12,-1.00
2019,02,04,13,13,-1.00
2019,02,04,13,14,-0.90
2019,02,04,13,15,-0.90
2019,02,04,13,16,-0.90
2019,02,04,13,17,-1.00
2019,02,04,13,18,-1.00
2019,02,04,13,19,-1.00
2019,02,04,13,20,-1.00
2019,02,04,13,21,-1.00
2019,02,04,13,22,-1.10
2019,02,04,13,23,-1.00
2019,02,04,13,24,-1.00
2019,02,04,13,25,-1.00
2019,02,04,13,26,-0.90
2019,02,04,13,27,-0.90
2019,02,04,13,28,-0.90
2019,02,04,13,29,-0.80
2019,02,04,13,30,-0.80
2019,02,04,13,31,-0.80
2019,02,04,13,32,-0.80
2019,02,04,13,33,-0.90
2019,02,04,13,34,-0.90
2019,02,04,13,35,-0.90
2019,02,04,13,36,-0.90
2019,02,04,13,37,-0.90
2019,02,04,13,38,-1.00
2019,02,04,13,39,-1.00
2019,02,04,13,40,-1.00
2019,02,04,13,41,-1.00
2019,02,04,13,42,-1.00
2019,02,04,13,43,-0.90
2019,02,04,13,44,-0.90
2019,02,04,13,45,-0.80
2019,02,04,13,46,-0.80
2019,02,04,13,47,-0.80
2019,02,04,13,48,-0.70
2019,02,04,13,49,-0.80
2019,02,04,13,50,-0.80
2019,02,04,13,51,-0.80
2019,02,04,13,52,-0.80
2019,02,04,13,53,-0.80
2019,02,04,13,54,-0.80
2019,02,04,13,55,-0.80
2019,02,04,13,56,-0.80
2019,02,04,13,57,-0.90
2019,02,04,13,58,-0.90
2019,02,04,13,59,-0.90
2019,02,04,14,00,-0.90
2019,02,04,14,01,-0.90
2019,02,04,14,02,-0.80
2019,02,04,14,03,-0.80
2019,02,04,14,04,-0.80
2019,02,04,14,05,-0.80
2019,02,04,14,06,-0.90
2019,02,04,14,07,-0.90
2019,02,04,14,08,-0.80
2019,02,04,14,09,-0.80
2019,02,04,14,10,-0.80
2019,02,04,14,11,-0.80
2019,02,04,14,12,-0.80
2019,02,04,14,13,-0.70
2019,02,04,14,14,-0.70
2019,02,04,14,15,-0.70
2019,02,04,14,16,-0.70
2019,02,04,14,17,-0.70
2019,02,04,14,18,-0.70
2019,02,04,14,19,-0.70
2019,02,04,14,20,-0.70
2019,02,04,14,21,-0.60
2019,02,04,14,22,-0.60
2019,02,04,14,23,-0.60
2019,02,04,14,24,-0.60
2019,02,04,14,25,-0.50
2019,02,04,14,26,-0.50
2019,02,04,14,27,-0.50
2019,02,04,14,28,-0.40
2019,02,04,14,29,-0.30
2019,02,04,14,30,-0.30
2019,02,04,14,31,-0.30
2019,02,04,14,32,-0.30
2019,02,04,14,33,-0.30
2019,02,04,14,34,-0.40
2019,02,04,14,35,-0.40
2019,02,04,14,36,-0.40
2019,02,04,14,37,-0.40
2019,02,04,14,38,-0.40
2019,02,04,14,39,-0.40
2019,02,04,14,40,-0.30
2019,02,04,14,41,-0.30
2019,02,04,14,42,-0.30
2019,02,04,14,43,-0.40
2019,02,04,14,44,-0.40
2019,02,04,14,45,-0.40
2019,02,04,14,46,-0.40
2019,02,04,14,47,-0.40
2019,02,04,14,48,-0.30
2019,02,04,14,49,-0.30
2019,02,04,14,50,-0.30
2019,02,04,14,51,-0.20
2019,02,04,14,52,-0.20
2019,02,04,14,53,-0.20
2019,02,04,14,54,-0.20
2019,02,04,14,55,-0.20
2019,02,04,14,56,-0.20
2019,02,04,14,57,-0.20
2019,02,04,14,58,-0.10
2019,02,04,14,59,-0.10
2019,02,04,15,00,-0.10
2019,02,04,15,01,-0.10
2019,02,04,15,02,-0.10
2019,02,04,15,03,-0.20
2019,02,04,15,04,-0.20
2019,02,04,15,05,-0.30
2019,02,04,15,06,-0.30
2019,02,04,15,07,-0.30
2019,02,04,15,08,-0.30
2019,02,04,15,09,-0.30
2019,02,04,15,10,-0.30
2019,02,04,15,11,-0.30
2019,02,04,15,12,-0.30
2019,02,04,15,13,-0.30
2019,02,04,15,14,-0.30
2019,02,04,15,15,-0.30
2019,02,04,15,16,-0.30
2019,02,04,15,17,-0.30
2019,02,04,15,18,-0.30
2019,02,04,15,19,-0.30
2019,02,04,15,20,-0.30
2019,02,04,15,21,-0.30
2019,02,04,15,22,-0.30
2019,02,04,15,23,-0.30
2019,02,04,15,24,-0.30
2019,02,04,15,25,-0.30
2019,02,04,15,26,-0.30
2019,02,04,15,27,-0.30
2019,02,04,15,28,-0.30
2019,02,04,15,29,-0.40
2019,02,04,15,30,-0.40
2019,02,04,15,31,-0.40
2019,02,04,15,32,-0.40
2019,02,04,15,33,-0.40
2019,02,04,15,34,-0.40
2019,02,04,15,35,-0.40
2019,02,04,15,36,-0.40
2019,02,04,15,37,-0.40
2019,02,04,15,38,-0.40
2019,02,04,15,39,-0.40
2019,02,04,15,40,-0.40
2019,02,04,15,41,-0.40
2019,02,04,15,42,-0.40
2019,02,04,15,43,-0.30
2019,02,04,15,44,-0.30
2019,02,04,15,45,-0.30
2019,02,04,15,46,-0.30
2019,02,04,15,47,-0.30
2019,02,04,15,48,-0.20
2019,02,04,15,49,-0.20
2019,02,04,15,50,-0.20
2019,02,04,15,51,-0.10
2019,02,04,15,52,-0.10
2019,02,04,15,53,-0.10
2019,02,04,15,54,-0.10
2019,02,04,15,55,0.00
2019,02,04,15,56,0.00
2019,02,04,15,57,0.00
2019,02,04,15,58,0.00
2019,02,04,15,59,0.00
2019,02,04,16,00,0.00
2019,02,04,16,01,0.00
2019,02,04,16,02,0.00
2019,02,04,16,03,0.10
2019,02,04,16,04,0.10
2019,02,04,16,05,0.10
2019,02,04,16,06,0.10
2019,02,04,16,07,0.10
2019,02,04,16,08,0.10
2019,02,04,16,09,0.10
2019,02,04,16,10,0.10
2019,02,04,16,11,0.10
2019,02,04,16,12,0.10
2019,02,04,16,13,0.10
2019,02,04,16,14,0.10
2019,02,04,16,15,0.20
2019,02,04,16,16,0.20
2019,02,04,16,17,0.20
2019,02,04,16,18,0.20
2019,02,04,16,19,0.10
2019,02,04,16,20,0.10
2019,02,04,16,21,0.10
2019,02,04,16,22,0.10
2019,02,04,16,23,0.10
2019,02,04,16,24,0.10
2019,02,04,16,25,0.10
2019,02,04,16,26,0.10
2019,02,04,16,27,0.10
2019,02,04,16,28,0.00
2019,02,04,16,29,0.00
2019,02,04,16,30,-0.10
2019,02,04,16,31,-0.10
2019,02,04,16,32,-0.20
2019,02,04,16,33,-0.30
2019,02,04,16,34,-0.30
2019,02,04,16,35,-0.30
2019,02,04,16,36,-0.30
2019,02,04,16,37,-0.30
2019,02,04,16,38,-0.40
2019,02,04,16,39,-0.40
2019,02,04,16,40,-0.50
2019,02,04,16,41,-0.60
2019,02,04,16,42,-0.70
2019,02,04,16,43,-0.80
2019,02,04,16,44,-0.80
2019,02,04,16,45,-0.90
2019,02,04,16,46,-1.00
2019,02,04,16,47,-1.10
2019,02,04,16,48,-1.20
2019,02,04,16,49,-1.20
2019,02,04,16,50,-1.30
2019,02,04,16,51,-1.30
2019,02,04,16,52,-1.40
2019,02,04,16,53,-1.40
2019,02,04,16,54,-1.40
2019,02,04,16,55,-1.50
2019,02,04,16,56,-1.50
2019,02,04,16,57,-1.50
2019,02,04,16,58,-1.50
2019,02,04,16,59,-1.50
2019,02,04,17,00,-1.60
2019,02,04,17,01,-1.60
2019,02,04,17,02,-1.70
2019,02,04,17,03,-1.70
2019,02,04,17,04,-1.70
2019,02,04,17,05,-1.70
2019,02,04,17,06,-1.70
2019,02,04,17,07,-1.80
2019,02,04,17,08,-1.80
2019,02,04,17,09,-1.90
2019,02,04,17,10,-1.90
2019,02,04,17,11,-2.00
2019,02,04,17,12,-2.00
2019,02,04,17,13,-2.00
2019,02,04,17,14,-2.00
2019,02,04,17,15,-1.90
2019,02,04,17,16,-1.90
2019,02,04,17,17,-2.00
2019,02,04,17,18,-2.00
2019,02,04,17,19,-2.10
2019,02,04,17,20,-2.10